TimeCDT,TemperatureF,Dew PointF,Humidity,Sea Level PressureIn,VisibilityMPH,Wind Direction,Wind SpeedMPH,Gust SpeedMPH,PrecipitationIn,Events,Conditions,WindDirDegrees,DateUTC
12:15 AM,41.2,39.9,95,30.14,7.0,North,16.1,19.6,0.01,Rain,Light Rain,360,2013-05-03 05:15:00
12:35 AM,41.2,39.7,95,30.13,10.0,North,15.0,19.6,0.01,Rain,Light Rain,360,2013-05-03 05:35:00
12:55 AM,41.0,39.6,95,30.13,10.0,North,12.7,-,0.02,Rain,Light Rain,360,2013-05-03 05:55:00
1:15 AM,41.0,39.4,94,30.12,10.0,North,13.8,20.7,N/A,Rain,Light Rain,360,2013-05-03 06:15:00
1:35 AM,40.8,39.4,95,30.11,7.0,North,15.0,-,0.01,Rain,Rain,350,2013-05-03 06:35:00
1:55 AM,40.5,39.2,95,30.10,7.0,North,16.1,-,0.03,Rain,Rain,360,2013-05-03 06:55:00
2:35 AM,40.3,39.2,96,30.08,10.0,North,15.0,-,0.02,Rain,Light Rain,360,2013-05-03 07:35:00
2:55 AM,40.3,39.2,96,30.08,10.0,North,16.1,-,0.02,Rain,Light Rain,360,2013-05-03 07:55:00
3:15 AM,40.1,39.2,97,30.07,10.0,North,13.8,-,N/A,Rain,Light Rain,10,2013-05-03 08:15:00
3:35 AM,40.1,38.8,95,30.08,10.0,North,10.4,-,N/A,Rain,Light Rain,360,2013-05-03 08:35:00
3:55 AM,40.1,39.0,96,30.07,10.0,North,16.1,21.9,0.01,Rain,Rain,10,2013-05-03 08:55:00
4:15 AM,39.7,38.5,95,30.07,10.0,North,13.8,-,N/A,,Light Drizzle,360,2013-05-03 09:15:00
4:35 AM,39.6,38.3,95,30.05,10.0,North,17.3,20.7,N/A,,Overcast,360,2013-05-03 09:35:00
4:55 AM,39.2,37.9,95,30.04,10.0,North,17.3,-,N/A,Rain,Light Rain,10,2013-05-03 09:55:00
5:15 AM,39.0,37.9,96,30.04,7.0,North,15.0,-,0.01,Rain,Light Rain,10,2013-05-03 10:15:00
5:35 AM,38.8,37.9,97,30.04,5.0,North,15.0,19.6,0.02,Rain,Rain,10,2013-05-03 10:35:00
5:55 AM,38.7,37.8,97,30.04,5.0,North,11.5,-,0.04,Rain,Light Rain,10,2013-05-03 10:55:00
6:15 AM,39.2,38.3,97,30.04,5.0,North,15.0,-,0.01,Rain,Rain,10,2013-05-03 11:15:00
6:35 AM,39.2,38.3,97,30.03,5.0,North,13.8,-,0.03,Rain,Rain,10,2013-05-03 11:35:00
6:55 AM,39.2,38.3,97,30.02,10.0,North,17.3,23.0,0.04,Rain,Light Rain,10,2013-05-03 11:55:00
7:15 AM,39.4,38.3,96,30.00,10.0,North,16.1,21.9,0.01,Rain,Light Rain,10,2013-05-03 12:15:00
7:35 AM,39.4,38.3,96,30.01,7.0,North,16.1,-,0.02,Rain,Rain,10,2013-05-03 12:35:00
7:55 AM,39.4,38.3,96,30.03,5.0,NNW,10.4,-,0.04,Rain,Rain,340,2013-05-03 12:55:00
8:15 AM,39.4,38.5,97,30.01,5.0,North,12.7,16.1,0.03,Rain,Rain,350,2013-05-03 13:15:00
8:35 AM,39.2,38.3,97,29.99,7.0,North,16.1,-,0.06,Rain,Rain,360,2013-05-03 13:35:00
8:55 AM,39.4,38.5,97,29.98,10.0,North,15.0,-,0.07,Rain,Rain,360,2013-05-03 13:55:00
9:15 AM,39.2,38.3,97,30.02,1.0,North,8.1,-,0.11,Rain,Light Rain,350,2013-05-03 14:15:00
9:35 AM,39.6,38.7,97,30.00,10.0,North,13.8,-,0.12,Rain,Rain,350,2013-05-03 14:35:00
9:55 AM,39.6,38.7,97,30.00,10.0,North,11.5,-,0.14,Rain,Rain,350,2013-05-03 14:55:00
10:15 AM,39.4,38.5,97,30.00,5.0,North,12.7,-,0.03,Rain,Rain,350,2013-05-03 15:15:00
10:35 AM,39.4,38.5,97,29.99,5.0,North,13.8,-,0.06,Rain,Rain,350,2013-05-03 15:35:00
10:55 AM,39.7,38.8,97,29.99,10.0,North,13.8,-,0.08,Rain,Rain,350,2013-05-03 15:55:00
11:15 AM,40.1,39.2,97,29.99,5.0,North,11.5,-,0.04,Rain,Rain,350,2013-05-03 16:15:00
11:35 AM,40.3,39.4,97,29.97,10.0,North,12.7,-,0.06,Rain,Rain,350,2013-05-03 16:35:00
11:55 AM,40.6,39.7,97,29.98,10.0,North,9.2,-,0.08,Rain,Light Rain,350,2013-05-03 16:55:00
12:15 PM,40.8,39.9,97,29.98,7.0,NW,9.2,-,0.02,Rain,Rain,320,2013-05-03 17:15:00
12:35 PM,41.0,40.1,97,29.98,4.0,NW,9.2,-,0.08,Rain,Heavy Rain,320,2013-05-03 17:35:00
12:55 PM,41.0,40.1,97,29.96,4.0,North,11.5,-,0.17,Rain,Rain,350,2013-05-03 17:55:00
1:15 PM,41.5,40.6,97,29.94,7.0,North,13.8,-,0.03,Rain,Light Rain,350,2013-05-03 18:15:00
1:35 PM,41.9,41.0,97,29.95,10.0,North,11.5,-,0.05,Rain,Rain,350,2013-05-03 18:35:00
1:55 PM,42.6,41.5,96,29.94,10.0,North,11.5,-,0.07,Rain,Rain,350,2013-05-03 18:55:00
2:15 PM,43.0,42.1,97,29.94,7.0,North,12.7,-,0.03,Rain,Heavy Rain,360,2013-05-03 19:15:00
2:35 PM,44.1,43.2,97,29.92,10.0,North,10.4,-,0.05,Rain,Light Rain,360,2013-05-03 19:35:00
2:55 PM,44.4,43.5,97,29.91,10.0,North,11.5,-,0.06,Rain,Rain,360,2013-05-03 19:55:00
3:15 PM,45.1,44.1,96,29.90,7.0,North,12.7,-,0.02,Rain,Heavy Rain,350,2013-05-03 20:15:00
3:35 PM,45.5,44.2,95,29.91,4.0,North,8.1,-,0.09,Rain,Heavy Rain,360,2013-05-03 20:35:00
3:55 PM,45.7,44.8,97,29.89,5.0,North,13.8,-,0.15,Rain,Heavy Rain,360,2013-05-03 20:55:00
4:15 PM,46.4,45.3,96,29.89,10.0,North,10.4,-,0.01,Rain,Rain,360,2013-05-03 21:15:00
4:35 PM,46.6,45.7,97,29.88,10.0,North,12.7,-,0.03,Rain,Light Rain,10,2013-05-03 21:35:00
4:55 PM,46.8,45.9,97,29.87,10.0,North,12.7,-,0.04,Rain,Light Rain,10,2013-05-03 21:55:00
5:15 PM,47.3,46.4,97,29.88,10.0,North,8.1,-,0.01,Rain,Rain,360,2013-05-03 22:15:00
5:35 PM,47.5,46.6,97,29.86,7.0,North,12.7,-,0.03,Rain,Rain,10,2013-05-03 22:35:00
5:55 PM,47.8,47.3,98,29.86,10.0,North,11.5,-,0.05,Rain,Light Rain,10,2013-05-03 22:55:00
6:15 PM,48.2,47.5,97,29.86,10.0,North,6.9,-,N/A,Rain,Light Rain,360,2013-05-03 23:15:00
6:35 PM,48.6,47.8,97,29.85,7.0,North,10.4,-,0.02,Rain,Light Rain,350,2013-05-03 23:35:00
6:55 PM,48.7,48.2,98,29.85,10.0,North,9.2,-,0.02,Rain,Light Rain,360,2013-05-03 23:55:00
7:15 PM,49.1,48.4,97,29.84,7.0,North,9.2,-,N/A,,Overcast,10,2013-05-04 00:15:00
7:35 PM,49.6,49.1,98,29.83,3.0,North,11.5,-,N/A,,Overcast,10,2013-05-04 00:35:00
7:55 PM,50.0,49.5,98,29.84,1.5,North,11.5,-,N/A,,Overcast,10,2013-05-04 00:55:00
8:15 PM,50.4,50.0,99,29.85,2.0,North,8.1,-,N/A,Rain,Light Rain,360,2013-05-04 01:15:00
8:35 PM,50.9,50.4,98,29.85,1.8,North,8.1,-,N/A,Rain,Rain,350,2013-05-04 01:35:00
8:55 PM,51.8,51.1,97,29.85,1.8,North,8.1,-,0.03,Rain,Rain,350,2013-05-04 01:55:00
9:15 PM,51.8,51.1,97,29.85,1.8,NNW,10.4,-,0.01,Rain,Light Rain,340,2013-05-04 02:15:00
9:35 PM,52.2,51.8,99,29.84,1.8,NNW,9.2,-,0.01,Rain,Light Rain,340,2013-05-04 02:35:00
9:55 PM,51.3,50.7,98,29.87,2.0,NW,5.8,-,0.09,Rain-Thunderstorm,Light Thunderstorms and Rain,320,2013-05-04 02:55:00
10:15 PM,54.0,53.6,99,29.84,7.0,NNE,10.4,-,0.01,,Light Drizzle,30,2013-05-04 03:15:00
10:35 PM,55.0,54.1,97,29.82,5.0,NE,10.4,-,0.01,,Overcast,50,2013-05-04 03:35:00
10:55 PM,55.4,54.0,95,29.82,5.0,NE,10.4,-,0.01,,Light Drizzle,50,2013-05-04 03:55:00
11:15 PM,55.4,53.6,94,29.81,7.0,ENE,12.7,-,N/A,,Mostly Cloudy,60,2013-05-04 04:15:00
11:35 PM,55.4,53.4,93,29.82,7.0,ENE,18.4,24.2,N/A,,Mostly Cloudy,60,2013-05-04 04:35:00
11:55 PM,56.3,53.2,89,29.84,10.0,East,17.3,24.2,N/A,,Overcast,80,2013-05-04 04:55:00